| time (UTC) | temp F | wind direction | speed MPH | gust MPH | rain 1hr in | rain 24hr in | rain mn in | humidity % | barometer mb |
| 20260507230504 | 54 | 118 | 0.0 | 0.0 | 0.00 | 0.00 | 0.00 | 79 | 993.0 |
| 20260507230005 | 54 | 118 | 0.0 | 0.0 | 0.00 | 0.00 | 0.00 | 78 | 993.0 |
| 20260507225504 | 54 | 118 | 0.0 | 0.0 | 0.00 | 0.00 | 0.00 | 78 | 994.0 |
| 20260507225004 | 54 | 118 | 0.0 | 0.0 | 0.00 | 0.00 | 0.00 | 78 | 994.0 |
| 20260507224505 | 54 | 118 | 0.0 | 0.0 | 0.00 | 0.00 | 0.00 | 78 | 994.0 |
| 20260507224004 | 54 | 118 | 0.0 | 0.0 | 0.00 | 0.00 | 0.00 | 77 | 994.0 |
| 20260507223504 | 55 | 118 | 0.0 | 0.0 | 0.00 | 0.00 | 0.00 | 77 | 994.0 |
| 20260507223004 | 55 | 118 | 0.0 | 0.0 | 0.00 | 0.00 | 0.00 | 77 | 994.0 |
| 20260507222504 | 55 | 118 | 0.0 | 0.0 | 0.00 | 0.00 | 0.00 | 77 | 994.0 |
| 20260507222004 | 55 | 118 | 0.0 | 0.0 | 0.00 | 0.00 | 0.00 | 78 | 994.0 |
| 20260507221504 | 55 | 118 | 0.0 | 0.0 | 0.00 | 0.00 | 0.00 | 78 | 994.0 |
| 20260507221004 | 55 | 118 | 0.0 | 0.0 | 0.00 | 0.00 | 0.00 | 78 | 1041.0 |
| 20260507220504 | 55 | 118 | 0.0 | 0.0 | 0.00 | 0.00 | 0.00 | 78 | 1041.0 |
| 20260507220004 | 55 | 118 | 0.0 | 0.0 | 0.00 | 0.00 | 0.00 | 77 | 1041.0 |
| 20260507215505 | 55 | 118 | 0.0 | 0.0 | 0.00 | 0.00 | 0.00 | 76 | 994.0 |
| 20260507215004 | 55 | 118 | 0.0 | 0.0 | 0.00 | 0.00 | 0.00 | 75 | 994.0 |
| 20260507214504 | 56 | 118 | 0.0 | 0.0 | 0.00 | 0.00 | 0.00 | 74 | 994.0 |
| 20260507214004 | 56 | 118 | 0.0 | 0.0 | 0.00 | 0.00 | 0.00 | 74 | 994.0 |
| 20260507213504 | 56 | 118 | 0.0 | 0.0 | 0.00 | 0.00 | 0.00 | 73 | 994.0 |
| 20260507213004 | 56 | 118 | 0.0 | 0.0 | 0.00 | 0.00 | 0.00 | 73 | 994.0 |
| 20260507212505 | 57 | 118 | 0.0 | 0.0 | 0.00 | 0.00 | 0.00 | 73 | 994.0 |
| 20260507212004 | 57 | 118 | 0.0 | 0.0 | 0.00 | 0.00 | 0.00 | 73 | 994.0 |
| 20260507211504 | 57 | 118 | 0.0 | 0.0 | 0.00 | 0.00 | 0.00 | 72 | 994.0 |
| 20260507211004 | 57 | 118 | 0.0 | 0.0 | 0.00 | 0.00 | 0.00 | 72 | 994.0 |
| 20260507210504 | 57 | 118 | 0.0 | 0.0 | 0.00 | 0.00 | 0.00 | 71 | 994.0 |
| 20260507210005 | 57 | 118 | 0.0 | 0.0 | 0.00 | 0.00 | 0.00 | 72 | 994.0 |
| 20260507205505 | 57 | 118 | 0.0 | 0.0 | 0.00 | 0.00 | 0.00 | 73 | 993.0 |
| 20260507205004 | 57 | 118 | 0.0 | 0.0 | 0.00 | 0.00 | 0.00 | 73 | 993.0 |
| 20260507204505 | 57 | 118 | 0.0 | 0.0 | 0.00 | 0.00 | 0.00 | 73 | 993.0 |
| 20260507204005 | 57 | 118 | 0.0 | 0.0 | 0.00 | 0.00 | 0.00 | 73 | 993.0 |
| 20260507203504 | 57 | 118 | 0.0 | 0.0 | 0.00 | 0.00 | 0.00 | 71 | 993.0 |
| 20260507203004 | 58 | 118 | 0.0 | 0.0 | 0.00 | 0.00 | 0.00 | 68 | 993.0 |
| 20260507202504 | 58 | 118 | 0.0 | 0.0 | 0.00 | 0.00 | 0.00 | 67 | 993.0 |
| 20260507202005 | 58 | 118 | 0.0 | 0.0 | 0.00 | 0.00 | 0.00 | 67 | 993.0 |
| 20260507201504 | 59 | 118 | 0.0 | 0.0 | 0.00 | 0.00 | 0.00 | 67 | 993.0 |
| 20260507201004 | 59 | 118 | 0.0 | 0.0 | 0.00 | 0.00 | 0.00 | 66 | 993.0 |
| 20260507200504 | 59 | 118 | 0.0 | 0.0 | 0.00 | 0.00 | 0.00 | 65 | 993.0 |
| 20260507200004 | 60 | 118 | 0.0 | 0.0 | 0.00 | 0.00 | 0.00 | 62 | 993.0 |
| 20260507195504 | 60 | 118 | 0.0 | 2.0 | 0.00 | 0.00 | 0.00 | 61 | 992.0 |
| 20260507195004 | 60 | 340 | 0.0 | 0.0 | 0.00 | 0.00 | 0.00 | 59 | 992.0 |
| 20260507194504 | 61 | 339 | 0.0 | 0.0 | 0.00 | 0.00 | 0.00 | 59 | 992.0 |
| 20260507194004 | 61 | 339 | 0.0 | 0.0 | 0.00 | 0.00 | 0.00 | 59 | 992.0 |
| 20260507193505 | 61 | 340 | 0.0 | 0.0 | 0.00 | 0.00 | 0.00 | 58 | 992.0 |
| 20260507193004 | 61 | 340 | 0.0 | 0.0 | 0.00 | 0.00 | 0.00 | 57 | 992.0 |
| 20260507192504 | 61 | 340 | 0.0 | 0.0 | 0.00 | 0.00 | 0.00 | 56 | 993.0 |
| 20260507192004 | 61 | 340 | 0.0 | 0.0 | 0.00 | 0.00 | 0.00 | 55 | 993.0 |
| 20260507191504 | 61 | 340 | 0.0 | 0.0 | 0.00 | 0.00 | 0.00 | 54 | 993.0 |
| 20260507191004 | 62 | 340 | 0.0 | 0.0 | 0.00 | 0.00 | 0.00 | 53 | 992.0 |
| 20260507190504 | 62 | 339 | 0.0 | 2.0 | 0.00 | 0.00 | 0.00 | 53 | 992.0 |
| 20260507190005 | 62 | 319 | 0.0 | 0.0 | 0.00 | 0.00 | 0.00 | 53 | 992.0 |
| 20260507185504 | 62 | 318 | 0.0 | 0.0 | 0.00 | 0.00 | 0.00 | 53 | 993.0 |
| 20260507185004 | 62 | 319 | 0.0 | 2.0 | 0.00 | 0.00 | 0.00 | 53 | 993.0 |
| 20260507184504 | 62 | 295 | 0.0 | 0.0 | 0.00 | 0.00 | 0.00 | 50 | 993.0 |
| 20260507184004 | 63 | 348 | 0.0 | 3.0 | 0.00 | 0.00 | 0.00 | 49 | 994.0 |
| 20260507183504 | 63 | 328 | 0.0 | 0.0 | 0.00 | 0.00 | 0.00 | 47 | 994.0 |
| 20260507183004 | 64 | 317 | 1.0 | 3.0 | 0.00 | 0.00 | 0.00 | 46 | 994.0 |
| 20260507182504 | 65 | 312 | 0.0 | 3.0 | 0.00 | 0.00 | 0.00 | 43 | 994.0 |
| 20260507182004 | 66 | 324 | 0.0 | 0.0 | 0.00 | 0.00 | 0.00 | 38 | 994.0 |
| 20260507181504 | 66 | 324 | 0.0 | 0.0 | 0.00 | 0.00 | 0.00 | 37 | 994.0 |
| 20260507181005 | 66 | 324 | 0.0 | 0.0 | 0.00 | 0.00 | 0.00 | 36 | 992.0 |
| 20260507180504 | 67 | 323 | 0.0 | 0.0 | 0.00 | 0.00 | 0.00 | 36 | 992.0 |
| 20260507180004 | 66 | 324 | 0.0 | 0.0 | 0.00 | 0.00 | 0.00 | 39 | 992.0 |
| 20260507175504 | 65 | 324 | 0.0 | 3.0 | 0.00 | 0.00 | 0.00 | 40 | 993.0 |
| 20260507175004 | 65 | 43 | 0.0 | 0.0 | 0.00 | 0.00 | 0.00 | 40 | 993.0 |
| 20260507174504 | 65 | 61 | 0.0 | 0.0 | 0.00 | 0.00 | 0.00 | 39 | 993.0 |
| 20260507174005 | 66 | 61 | 0.0 | 0.0 | 0.00 | 0.00 | 0.00 | 39 | 992.0 |
| 20260507173504 | 66 | 62 | 0.0 | 0.0 | 0.00 | 0.00 | 0.00 | 39 | 992.0 |
| 20260507173005 | 66 | 62 | 0.0 | 0.0 | 0.00 | 0.00 | 0.00 | 39 | 992.0 |
| 20260507172504 | 65 | 62 | 0.0 | 0.0 | 0.00 | 0.00 | 0.00 | 38 | 992.0 |
| 20260507172004 | 66 | 62 | 0.0 | 0.0 | 0.00 | 0.00 | 0.00 | 38 | 992.0 |
| 20260507171504 | 66 | 62 | 0.0 | 0.0 | 0.00 | 0.00 | 0.00 | 37 | 992.0 |
| 20260507171004 | 66 | 62 | 0.0 | 0.0 | 0.00 | 0.00 | 0.00 | 37 | 993.0 |
| 20260507170504 | 66 | 62 | 0.0 | 0.0 | 0.00 | 0.00 | 0.00 | 37 | 993.0 |
| 20260507170004 | 66 | 62 | 0.0 | 0.0 | 0.00 | 0.00 | 0.00 | 37 | 993.0 |
| 20260507165504 | 66 | 62 | 0.0 | 0.0 | 0.00 | 0.00 | 0.00 | 38 | 993.0 |
| 20260507165004 | 66 | 62 | 0.0 | 0.0 | 0.00 | 0.00 | 0.00 | 39 | 993.0 |
| 20260507164504 | 66 | 62 | 0.0 | 0.0 | 0.00 | 0.00 | 0.00 | 40 | 993.0 |
| 20260507164004 | 65 | 62 | 0.0 | 0.0 | 0.00 | 0.00 | 0.00 | 40 | 993.0 |
| 20260507163504 | 65 | 62 | 0.0 | 0.0 | 0.00 | 0.00 | 0.00 | 40 | 993.0 |
| 20260507163004 | 64 | 62 | 0.0 | 0.0 | 0.00 | 0.00 | 0.00 | 40 | 993.0 |
| 20260507162504 | 64 | 52 | 0.0 | 0.0 | 0.00 | 0.00 | 0.00 | 40 | 993.0 |
| 20260507162004 | 64 | 52 | 0.0 | 3.0 | 0.00 | 0.00 | 0.00 | 39 | 993.0 |
| 20260507161504 | 64 | 352 | 2.0 | 6.0 | 0.00 | 0.00 | 0.00 | 37 | 993.0 |
| 20260507161004 | 64 | 302 | 1.0 | 3.0 | 0.00 | 0.00 | 0.00 | 36 | 993.0 |
| 20260507160504 | 64 | 293 | 0.0 | 6.0 | 0.00 | 0.00 | 0.00 | 34 | 993.0 |
| 20260507160005 | 65 | 346 | 3.0 | 8.0 | 0.00 | 0.00 | 0.00 | 33 | 993.0 |
| 20260507155504 | 65 | 325 | 1.0 | 5.0 | 0.00 | 0.00 | 0.00 | 31 | 993.0 |
| 20260507155005 | 66 | 341 | 2.0 | 5.0 | 0.00 | 0.00 | 0.00 | 29 | 993.0 |
| 20260507154504 | 67 | 319 | 3.0 | 6.0 | 0.00 | 0.00 | 0.00 | 26 | 993.0 |
| 20260507154005 | 68 | 106 | 4.0 | 7.0 | 0.00 | 0.00 | 0.00 | 25 | 992.0 |
| 20260507153504 | 68 | 53 | 3.0 | 12.0 | 0.00 | 0.00 | 0.00 | 25 | 992.0 |
| 20260507153004 | 70 | 302 | 2.0 | 10.0 | 0.00 | 0.00 | 0.00 | 24 | 992.0 |
| 20260507152504 | 72 | 299 | 0.0 | 6.0 | 0.00 | 0.00 | 0.00 | 25 | 992.0 |
| 20260507152004 | 73 | 281 | 0.0 | 0.0 | 0.00 | 0.00 | 0.00 | 24 | 992.0 |
| 20260507151504 | 74 | 280 | 0.0 | 0.0 | 0.00 | 0.00 | 0.00 | 23 | 992.0 |
| 20260507151003 | 75 | 281 | 0.0 | 2.0 | 0.00 | 0.00 | 0.00 | 22 | 992.0 |
| 20260507150504 | 78 | 102 | 0.0 | 0.0 | 0.00 | 0.00 | 0.00 | 23 | 992.0 |
| 20260507150004 | 76 | 105 | 0.0 | 2.0 | 0.00 | 0.00 | 0.00 | 23 | 992.0 |
| 20260507145504 | 75 | 105 | 0.0 | 0.0 | 0.00 | 0.00 | 0.00 | 25 | 992.0 |
| 20260507145004 | 74 | 102 | 0.0 | 0.0 | 0.00 | 0.00 | 0.00 | 25 | 992.0 |
| 20260507144504 | 74 | 106 | 0.0 | 0.0 | 0.00 | 0.00 | 0.00 | 27 | 992.0 |
| 20260507144004 | 74 | 106 | 0.0 | 0.0 | 0.00 | 0.00 | 0.00 | 28 | 992.0 |
| 20260507143504 | 73 | 106 | 0.0 | 0.0 | 0.00 | 0.00 | 0.00 | 31 | 992.0 |
| 20260507143004 | 73 | 280 | 0.0 | 0.0 | 0.00 | 0.00 | 0.00 | 32 | 992.0 |
| 20260507142504 | 73 | 280 | 0.0 | 0.0 | 0.00 | 0.00 | 0.00 | 32 | 992.0 |
| 20260507142004 | 73 | 280 | 0.0 | 0.0 | 0.00 | 0.00 | 0.00 | 32 | 992.0 |
| 20260507141504 | 72 | 280 | 0.0 | 0.0 | 0.00 | 0.00 | 0.00 | 33 | 992.0 |
| 20260507141004 | 72 | 279 | 0.0 | 0.0 | 0.00 | 0.00 | 0.00 | 33 | 992.0 |
| 20260507140504 | 72 | 279 | 0.0 | 0.0 | 0.00 | 0.00 | 0.00 | 33 | 992.0 |
| 20260507140004 | 72 | 280 | 0.0 | 2.0 | 0.00 | 0.00 | 0.00 | 33 | 992.0 |
| 20260507135504 | 72 | 279 | 0.0 | 2.0 | 0.00 | 0.00 | 0.00 | 33 | 993.0 |
| 20260507135004 | 71 | 138 | 0.0 | 0.0 | 0.00 | 0.00 | 0.00 | 34 | 993.0 |
| 20260507134504 | 70 | 263 | 0.0 | 3.0 | 0.00 | 0.00 | 0.00 | 33 | 993.0 |
| 20260507134004 | 71 | 279 | 0.0 | 3.0 | 0.00 | 0.04 | 0.00 | 33 | 993.0 |
| 20260507133504 | 72 | 98 | 0.0 | 3.0 | 0.00 | 0.04 | 0.00 | 32 | 993.0 |
| 20260507133004 | 73 | 333 | 0.0 | 0.0 | 0.00 | 0.04 | 0.00 | 31 | 993.0 |
| 20260507132504 | 74 | 333 | 0.0 | 0.0 | 0.00 | 0.04 | 0.00 | 29 | 993.0 |
| 20260507132004 | 76 | 334 | 0.0 | 0.0 | 0.00 | 0.04 | 0.00 | 30 | 993.0 |
| 20260507131504 | 75 | 334 | 0.0 | 0.0 | 0.00 | 0.04 | 0.00 | 30 | 993.0 |
| 20260507131004 | 74 | 334 | 0.0 | 0.0 | 0.00 | 0.04 | 0.00 | 29 | 993.0 |
| 20260507130506 | 74 | 334 | 0.0 | 0.0 | 0.00 | 0.04 | 0.00 | 29 | 993.0 |
| 20260507130006 | 75 | 333 | 0.0 | 0.0 | 0.00 | 0.04 | 0.00 | 28 | 993.0 |
| 20260507125506 | 75 | 333 | 0.0 | 0.0 | 0.00 | 0.04 | 0.00 | 28 | 993.0 |
| 20260507125006 | 76 | 333 | 0.0 | 0.0 | 0.00 | 0.04 | 0.00 | 28 | 993.0 |
| 20260507124506 | 76 | 334 | 0.0 | 0.0 | 0.00 | 0.04 | 0.00 | 29 | 993.0 |
| 20260507124006 | 75 | 334 | 0.0 | 0.0 | 0.00 | 0.04 | 0.00 | 31 | 994.0 |
| 20260507123506 | 73 | 334 | 0.0 | 0.0 | 0.00 | 0.04 | 0.00 | 32 | 994.0 |
| 20260507123006 | 72 | 334 | 0.0 | 0.0 | 0.00 | 0.04 | 0.00 | 32 | 994.0 |
| 20260507122505 | 72 | 334 | 0.0 | 0.0 | 0.00 | 0.04 | 0.00 | 32 | 994.0 |
| 20260507122006 | 72 | 334 | 0.0 | 2.0 | 0.00 | 0.04 | 0.00 | 31 | 994.0 |
| 20260507121506 | 72 | 334 | 0.0 | 0.0 | 0.00 | 0.04 | 0.00 | 31 | 994.0 |
| 20260507121006 | 72 | 334 | 0.0 | 0.0 | 0.00 | 0.04 | 0.00 | 32 | 994.0 |
| 20260507120506 | 71 | 334 | 0.0 | 0.0 | 0.00 | 0.04 | 0.00 | 33 | 994.0 |
| 20260507120006 | 71 | 334 | 0.0 | 0.0 | 0.00 | 0.04 | 0.00 | 33 | 994.0 |
| 20260507115506 | 71 | 334 | 0.0 | 0.0 | 0.00 | 0.04 | 0.00 | 33 | 994.0 |
| 20260507115006 | 71 | 334 | 0.0 | 0.0 | 0.00 | 0.04 | 0.00 | 32 | 994.0 |
| 20260507114505 | 71 | 334 | 0.0 | 0.0 | 0.00 | 0.04 | 0.00 | 33 | 994.0 |
| 20260507114006 | 70 | 334 | 0.0 | 0.0 | 0.00 | 0.04 | 0.00 | 33 | 994.0 |
| 20260507113506 | 70 | 334 | 0.0 | 0.0 | 0.00 | 0.04 | 0.00 | 33 | 994.0 |
| 20260507113006 | 70 | 334 | 0.0 | 0.0 | 0.00 | 0.04 | 0.00 | 33 | 994.0 |
| 20260507112506 | 70 | 334 | 0.0 | 0.0 | 0.00 | 0.04 | 0.00 | 33 | 995.0 |
| 20260507112006 | 70 | 334 | 0.0 | 0.0 | 0.00 | 0.04 | 0.00 | 33 | 995.0 |
| 20260507111507 | 70 | 334 | 0.0 | 0.0 | 0.00 | 0.04 | 0.00 | 34 | 995.0 |
| 20260507111006 | 69 | 334 | 0.0 | 0.0 | 0.00 | 0.04 | 0.00 | 33 | 995.0 |
| 20260507110506 | 69 | 334 | 0.0 | 0.0 | 0.00 | 0.04 | 0.00 | 34 | 995.0 |
| 20260507110006 | 69 | 334 | 0.0 | 0.0 | 0.00 | 0.04 | 0.00 | 34 | 995.0 |
| 20260507105506 | 69 | 334 | 0.0 | 0.0 | 0.00 | 0.04 | 0.00 | 34 | 995.0 |
| 20260507105006 | 69 | 334 | 0.0 | 0.0 | 0.00 | 0.04 | 0.00 | 34 | 995.0 |
| 20260507104506 | 68 | 334 | 0.0 | 0.0 | 0.00 | 0.04 | 0.00 | 34 | 995.0 |
| 20260507104006 | 68 | 334 | 0.0 | 0.0 | 0.00 | 0.04 | 0.00 | 35 | 995.0 |
| 20260507103506 | 68 | 334 | 0.0 | 0.0 | 0.00 | 0.04 | 0.00 | 36 | 995.0 |
| 20260507103006 | 67 | 334 | 0.0 | 0.0 | 0.00 | 0.04 | 0.00 | 37 | 995.0 |
| 20260507102505 | 67 | 334 | 0.0 | 0.0 | 0.00 | 0.04 | 0.00 | 38 | 995.0 |
| 20260507102007 | 67 | 334 | 0.0 | 0.0 | 0.00 | 0.04 | 0.00 | 38 | 995.0 |
| 20260507101507 | 66 | 334 | 0.0 | 0.0 | 0.00 | 0.04 | 0.00 | 38 | 995.0 |
| 20260507101006 | 66 | 334 | 0.0 | 0.0 | 0.00 | 0.04 | 0.00 | 38 | 995.0 |
| 20260507100506 | 66 | 334 | 0.0 | 0.0 | 0.00 | 0.04 | 0.00 | 40 | 995.0 |
| 20260507100006 | 65 | 334 | 0.0 | 0.0 | 0.00 | 0.04 | 0.00 | 41 | 995.0 |
| 20260507095506 | 65 | 334 | 0.0 | 0.0 | 0.00 | 0.04 | 0.00 | 42 | 996.0 |
| 20260507095006 | 65 | 334 | 0.0 | 0.0 | 0.00 | 0.04 | 0.00 | 43 | 996.0 |
| 20260507094506 | 64 | 334 | 0.0 | 0.0 | 0.00 | 0.04 | 0.00 | 43 | 996.0 |
| 20260507094006 | 64 | 334 | 0.0 | 0.0 | 0.00 | 0.04 | 0.00 | 43 | 996.0 |
| 20260507093506 | 64 | 334 | 0.0 | 0.0 | 0.00 | 0.04 | 0.00 | 44 | 996.0 |
| 20260507093006 | 63 | 334 | 0.0 | 0.0 | 0.00 | 0.04 | 0.00 | 45 | 996.0 |
| 20260507092506 | 63 | 334 | 0.0 | 0.0 | 0.00 | 0.04 | 0.00 | 44 | 996.0 |
| 20260507092006 | 63 | 334 | 0.0 | 0.0 | 0.00 | 0.04 | 0.00 | 45 | 996.0 |
| 20260507091506 | 63 | 334 | 0.0 | 0.0 | 0.00 | 0.04 | 0.00 | 45 | 996.0 |
| 20260507091006 | 63 | 334 | 0.0 | 0.0 | 0.00 | 0.04 | 0.00 | 45 | 995.0 |
| 20260507090507 | 63 | 334 | 0.0 | 0.0 | 0.00 | 0.04 | 0.00 | 44 | 995.0 |
| 20260507090006 | 63 | 334 | 0.0 | 0.0 | 0.00 | 0.04 | 0.00 | 46 | 995.0 |
| 20260507085505 | 62 | 334 | 0.0 | 0.0 | 0.00 | 0.04 | 0.00 | 48 | 995.0 |
| 20260507085006 | 62 | 334 | 0.0 | 0.0 | 0.00 | 0.04 | 0.00 | 50 | 995.0 |
| 20260507084506 | 61 | 334 | 0.0 | 0.0 | 0.00 | 0.04 | 0.00 | 50 | 995.0 |
| 20260507084006 | 60 | 334 | 0.0 | 0.0 | 0.00 | 0.04 | 0.00 | 51 | 996.0 |
| 20260507083505 | 60 | 334 | 0.0 | 0.0 | 0.00 | 0.04 | 0.00 | 53 | 996.0 |
| 20260507083006 | 60 | 334 | 0.0 | 0.0 | 0.00 | 0.04 | 0.00 | 54 | 996.0 |
| 20260507082506 | 59 | 334 | 0.0 | 0.0 | 0.00 | 0.04 | 0.00 | 52 | 995.0 |
| 20260507082006 | 59 | 334 | 0.0 | 0.0 | 0.00 | 0.04 | 0.00 | 53 | 995.0 |
| 20260507081506 | 59 | 334 | 0.0 | 0.0 | 0.00 | 0.04 | 0.00 | 55 | 995.0 |
| 20260507081005 | 59 | 334 | 0.0 | 0.0 | 0.00 | 0.04 | 0.00 | 59 | 995.0 |
| 20260507080505 | 57 | 334 | 0.0 | 0.0 | 0.00 | 0.04 | 0.00 | 60 | 995.0 |
| 20260507080006 | 57 | 334 | 0.0 | 0.0 | 0.00 | 0.04 | 0.00 | 63 | 995.0 |
| 20260507075506 | 57 | 334 | 0.0 | 0.0 | 0.00 | 0.04 | 0.00 | 67 | 995.0 |
| 20260507075005 | 56 | 334 | 0.0 | 0.0 | 0.00 | 0.04 | 0.00 | 69 | 995.0 |
| 20260507074506 | 56 | 333 | 0.0 | 0.0 | 0.00 | 0.04 | 0.00 | 71 | 995.0 |
| 20260507074005 | 55 | 333 | 0.0 | 0.0 | 0.00 | 0.04 | 0.00 | 72 | 995.0 |
| 20260507073506 | 55 | 333 | 0.0 | 0.0 | 0.00 | 0.04 | 0.00 | 73 | 995.0 |
| 20260507073006 | 54 | 334 | 0.0 | 0.0 | 0.00 | 0.04 | 0.00 | 74 | 995.0 |
| 20260507072506 | 53 | 333 | 0.0 | 0.0 | 0.00 | 0.04 | 0.00 | 74 | 995.0 |
| 20260507072006 | 53 | 333 | 0.0 | 0.0 | 0.00 | 0.04 | 0.00 | 75 | 995.0 |
| 20260507071506 | 53 | 333 | 0.0 | 0.0 | 0.00 | 0.04 | 0.00 | 75 | 995.0 |
| 20260507071006 | 52 | 334 | 0.0 | 0.0 | 0.00 | 0.04 | 0.00 | 75 | 996.0 |
| 20260507070505 | 52 | 334 | 0.0 | 0.0 | 0.00 | 0.04 | 0.00 | 76 | 996.0 |
| 20260507070010 | 52 | 333 | 0.0 | 0.0 | 0.00 | 0.04 | 0.00 | 76 | 996.0 |
| 20260507065505 | 52 | 333 | 0.0 | 0.0 | 0.00 | 0.04 | 0.00 | 76 | 996.0 |
| 20260507065006 | 52 | 333 | 0.0 | 0.0 | 0.00 | 0.04 | 0.00 | 77 | 996.0 |
| 20260507064506 | 51 | 333 | 0.0 | 0.0 | 0.00 | 0.04 | 0.00 | 77 | 996.0 |
| 20260507064006 | 51 | 334 | 0.0 | 0.0 | 0.00 | 0.04 | 0.00 | 78 | 996.0 |
| 20260507063506 | 51 | 333 | 0.0 | 0.0 | 0.00 | 0.04 | 0.00 | 78 | 996.0 |
| 20260507063006 | 51 | 333 | 0.0 | 0.0 | 0.00 | 0.04 | 0.00 | 79 | 996.0 |
| 20260507062506 | 51 | 333 | 0.0 | 0.0 | 0.00 | 0.04 | 0.00 | 79 | 996.0 |
| 20260507062006 | 51 | 333 | 0.0 | 0.0 | 0.00 | 0.04 | 0.00 | 79 | 996.0 |
| 20260507061506 | 51 | 334 | 0.0 | 0.0 | 0.00 | 0.04 | 0.00 | 80 | 996.0 |
| 20260507061006 | 51 | 334 | 0.0 | 0.0 | 0.00 | 0.04 | 0.00 | 80 | 996.0 |
| 20260507060505 | 51 | 334 | 0.0 | 0.0 | 0.00 | 0.04 | 0.00 | 80 | 996.0 |
| 20260507060006 | 51 | 334 | 0.0 | 0.0 | 0.00 | 0.04 | 0.00 | 80 | 996.0 |
| 20260507055507 | 51 | 333 | 0.0 | 0.0 | 0.00 | 0.04 | 0.00 | 80 | 996.0 |
| 20260507055006 | 51 | 334 | 0.0 | 0.0 | 0.00 | 0.04 | 0.00 | 80 | 996.0 |
| 20260507054506 | 50 | 333 | 0.0 | 0.0 | 0.00 | 0.04 | 0.00 | 80 | 996.0 |
| 20260507054006 | 50 | 333 | 0.0 | 0.0 | 0.00 | 0.04 | 0.00 | 80 | 996.0 |
| 20260507053506 | 50 | 333 | 0.0 | 0.0 | 0.00 | 0.04 | 0.00 | 80 | 996.0 |
| 20260507053006 | 50 | 333 | 0.0 | 0.0 | 0.00 | 0.04 | 0.00 | 80 | 996.0 |
| 20260507052506 | 50 | 334 | 0.0 | 0.0 | 0.00 | 0.04 | 0.00 | 80 | 996.0 |
| 20260507052006 | 50 | 333 | 0.0 | 0.0 | 0.00 | 0.04 | 0.00 | 80 | 996.0 |
| 20260507051506 | 50 | 334 | 0.0 | 0.0 | 0.00 | 0.04 | 0.00 | 80 | 996.0 |
| 20260507051006 | 50 | 333 | 0.0 | 0.0 | 0.00 | 0.04 | 0.00 | 80 | 996.0 |
| 20260507050506 | 50 | 334 | 0.0 | 0.0 | 0.00 | 0.04 | 0.00 | 80 | 996.0 |
| 20260507050006 | 50 | 333 | 0.0 | 0.0 | 0.00 | 0.04 | 0.00 | 80 | 996.0 |
| 20260507045505 | 50 | 334 | 0.0 | 0.0 | 0.00 | 0.04 | 0.00 | 80 | 996.0 |
| 20260507045006 | 50 | 333 | 0.0 | 0.0 | 0.00 | 0.04 | 0.00 | 80 | 996.0 |
| 20260507044506 | 50 | 334 | 0.0 | 0.0 | 0.00 | 0.04 | 0.00 | 80 | 996.0 |
| 20260507044006 | 50 | 334 | 0.0 | 0.0 | 0.00 | 0.04 | 0.00 | 80 | 996.0 |
| 20260507043506 | 50 | 333 | 0.0 | 0.0 | 0.00 | 0.04 | 0.00 | 80 | 996.0 |
| 20260507043006 | 51 | 333 | 0.0 | 0.0 | 0.00 | 0.04 | 0.00 | 80 | 996.0 |
| 20260507042506 | 50 | 333 | 0.0 | 0.0 | 0.00 | 0.04 | 0.00 | 80 | 996.0 |
| 20260507042006 | 51 | 333 | 0.0 | 0.0 | 0.00 | 0.04 | 0.00 | 80 | 996.0 |
| 20260507041506 | 51 | 334 | 0.0 | 0.0 | 0.00 | 0.04 | 0.00 | 80 | 996.0 |
| 20260507041006 | 51 | 333 | 0.0 | 0.0 | 0.00 | 0.04 | 0.00 | 80 | 996.0 |
| 20260507040506 | 51 | 333 | 0.0 | 0.0 | 0.00 | 0.04 | 0.00 | 80 | 996.0 |
| 20260507040005 | 51 | 333 | 0.0 | 0.0 | 0.00 | 0.04 | 0.00 | 81 | 996.0 |
| 20260507035506 | 51 | 333 | 0.0 | 0.0 | 0.00 | 0.04 | 0.00 | 81 | 996.0 |
| 20260507035006 | 51 | 333 | 0.0 | 0.0 | 0.00 | 0.04 | 0.00 | 81 | 996.0 |
| 20260507034506 | 51 | 333 | 0.0 | 0.0 | 0.00 | 0.04 | 0.00 | 81 | 996.0 |
| 20260507034006 | 51 | 333 | 0.0 | 0.0 | 0.00 | 0.04 | 0.00 | 81 | 996.0 |
| 20260507033506 | 51 | 333 | 0.0 | 0.0 | 0.00 | 0.04 | 0.00 | 81 | 996.0 |
| 20260507033005 | 51 | 334 | 0.0 | 0.0 | 0.00 | 0.04 | 0.00 | 82 | 996.0 |
| 20260507032505 | 51 | 333 | 0.0 | 0.0 | 0.00 | 0.04 | 0.00 | 82 | 996.0 |
| 20260507032006 | 51 | 334 | 0.0 | 0.0 | 0.00 | 0.04 | 0.00 | 81 | 996.0 |
| 20260507031506 | 51 | 334 | 0.0 | 0.0 | 0.00 | 0.04 | 0.00 | 82 | 996.0 |
| 20260507031005 | 51 | 333 | 0.0 | 0.0 | 0.00 | 0.04 | 0.00 | 82 | 996.0 |
| 20260507030505 | 51 | 334 | 0.0 | 0.0 | 0.00 | 0.04 | 0.00 | 82 | 996.0 |
| 20260507030005 | 51 | 334 | 0.0 | 0.0 | 0.00 | 0.04 | 0.00 | 82 | 996.0 |
| 20260507025506 | 52 | 334 | 0.0 | 0.0 | 0.00 | 0.04 | 0.00 | 82 | 996.0 |
| 20260507025006 | 52 | 333 | 0.0 | 0.0 | 0.00 | 0.04 | 0.00 | 82 | 996.0 |
| 20260507024506 | 52 | 334 | 0.0 | 0.0 | 0.00 | 0.04 | 0.00 | 83 | 996.0 |
| 20260507024006 | 52 | 333 | 0.0 | 0.0 | 0.00 | 0.04 | 0.00 | 83 | 996.0 |
| 20260507023506 | 52 | 333 | 0.0 | 0.0 | 0.00 | 0.04 | 0.00 | 83 | 996.0 |
| 20260507023006 | 51 | 334 | 0.0 | 0.0 | 0.00 | 0.04 | 0.00 | 83 | 996.0 |
| 20260507022505 | 51 | 334 | 0.0 | 0.0 | 0.00 | 0.04 | 0.00 | 83 | 996.0 |
| 20260507022006 | 51 | 333 | 0.0 | 0.0 | 0.00 | 0.04 | 0.00 | 84 | 996.0 |
| 20260507021506 | 52 | 333 | 0.0 | 0.0 | 0.00 | 0.04 | 0.00 | 84 | 996.0 |
| 20260507021005 | 52 | 333 | 0.0 | 0.0 | 0.00 | 0.04 | 0.00 | 84 | 996.0 |
| 20260507020506 | 52 | 333 | 0.0 | 0.0 | 0.00 | 0.04 | 0.00 | 84 | 996.0 |
| 20260507020006 | 52 | 333 | 0.0 | 0.0 | 0.00 | 0.04 | 0.00 | 85 | 996.0 |
| 20260507015506 | 52 | 334 | 0.0 | 0.0 | 0.00 | 0.04 | 0.00 | 85 | 996.0 |
| 20260507015006 | 52 | 334 | 0.0 | 0.0 | 0.00 | 0.04 | 0.00 | 85 | 996.0 |
| 20260507014506 | 52 | 333 | 0.0 | 0.0 | 0.00 | 0.04 | 0.00 | 85 | 996.0 |
| 20260507014006 | 52 | 333 | 0.0 | 0.0 | 0.00 | 0.04 | 0.00 | 85 | 997.0 |
| 20260507013506 | 52 | 333 | 0.0 | 0.0 | 0.00 | 0.04 | 0.00 | 85 | 997.0 |
| 20260507013006 | 52 | 333 | 0.0 | 0.0 | 0.00 | 0.04 | 0.00 | 85 | 997.0 |
| 20260507012506 | 52 | 334 | 0.0 | 0.0 | 0.00 | 0.04 | 0.00 | 85 | 997.0 |
| 20260507012005 | 51 | 334 | 0.0 | 0.0 | 0.00 | 0.04 | 0.00 | 85 | 997.0 |
| 20260507011506 | 51 | 333 | 0.0 | 0.0 | 0.00 | 0.04 | 0.00 | 85 | 997.0 |
| 20260507011006 | 51 | 334 | 0.0 | 0.0 | 0.00 | 0.04 | 0.00 | 85 | 997.0 |
| 20260507010505 | 51 | 334 | 0.0 | 0.0 | 0.00 | 0.04 | 0.00 | 85 | 997.0 |
| 20260507010006 | 51 | 333 | 0.0 | 0.0 | 0.00 | 0.04 | 0.00 | 85 | 997.0 |
| 20260507005505 | 52 | 333 | 0.0 | 0.0 | 0.00 | 0.04 | 0.00 | 85 | 997.0 |
| 20260507005006 | 52 | 334 | 0.0 | 0.0 | 0.00 | 0.04 | 0.00 | 84 | 997.0 |
| 20260507004505 | 51 | 334 | 0.0 | 0.0 | 0.00 | 0.04 | 0.00 | 84 | 997.0 |
| 20260507004006 | 52 | 333 | 0.0 | 0.0 | 0.00 | 0.04 | 0.00 | 84 | 997.0 |
| 20260507003506 | 52 | 333 | 0.0 | 0.0 | 0.00 | 0.04 | 0.00 | 84 | 997.0 |
| 20260507003005 | 52 | 333 | 0.0 | 0.0 | 0.00 | 0.04 | 0.00 | 83 | 997.0 |
| 20260507002505 | 52 | 333 | 0.0 | 0.0 | 0.00 | 0.04 | 0.00 | 83 | 997.0 |
| 20260507002005 | 52 | 334 | 0.0 | 0.0 | 0.00 | 0.04 | 0.00 | 83 | 997.0 |
| 20260507001506 | 52 | 333 | 0.0 | 0.0 | 0.00 | 0.04 | 0.00 | 82 | 997.0 |
| 20260507001006 | 52 | 333 | 0.0 | 0.0 | 0.00 | 0.04 | 0.00 | 82 | 997.0 |
| 20260507000506 | 53 | 333 | 0.0 | 0.0 | 0.00 | 0.04 | 0.00 | 83 | 997.0 |
| 20260507000006 | 53 | 334 | 0.0 | 0.0 | 0.00 | 0.04 | 0.00 | 83 | 997.0 |
| 20260506235505 | 53 | 333 | 0.0 | 0.0 | 0.00 | 0.04 | 0.00 | 83 | 997.0 |
| 20260506235006 | 53 | 333 | 0.0 | 0.0 | 0.00 | 0.04 | 0.00 | 83 | 997.0 |